sat.trackr.live / text

‹ back to catalog

STARLINK-4710

NORAD 53799 · 2022-111AC

PAYLOAD ACTIVE UNKNOWN

§ Identity

Operator
Country
US
Launch date
2022-09-11
Launch site
AFETR
Launch vehicle
Mass (kg)
RCS (m²)

Purposes: comms

External: N2YO · Heavens-Above · Gunter

§ Orbital elements

Epoch: 2026-05-24T15:44:16.782720Z

Period
95.44 min
Inclination
53.2150°
Eccentricity
0.0001504
Mean motion
15.08843730 rev/d
Perigee alt
538.7 km
Apogee alt
540.8 km
Semi-major
6,917.9 km
B*
6.1728e-5
RAAN
283.1665°
Arg perigee
89.1482°
Mean anomaly
270.9683°
Rev number
20,528

§ Raw data

STARLINK-47101 53799U 22111AC  26144.65574980  .00000695  00000+0  61728-4 0  99982 53799  53.2150 283.1665 0001504  89.1482 270.9683 15.08843730205285

JSON: /api/v1/satellites/53799 · /tle

For live sub-satellite position, see the globe view (requires WebGL).

§ Visibility from observer

Set your observer location to see the next 7 days of passes ≥ 10°. The values pass through the URL so the page stays shareable.

No JS? Fill the form by hand. The geolocation button needs JavaScript.